Regional Weather Roundup
Issued by NWS Charleston, SC

Current Version | Previous Version | Graphics & Text | Print | Product List | Glossary On
Versions: 1 2 3 4 5 6 7 8 9 10 11 12 13 14 15 16 17 18 19 20 21 22 23 24 25 26 27 28 29 30 31 32 33 34 35 36 37 38 39 40 41 42 43 44 45 46 47 48 49 50
000
ASUS42 KCHS 091027
RWRCHS

REGIONAL WEATHER ROUNDUP
NATIONAL WEATHER SERVICE CHARLESTON SC
500 AM EST TUE FEB 09 2016

NOTE: "FAIR" INDICATES FEW OR NO CLOUDS BELOW 12,000 FEET WITH NO
SIGNIFICANT WEATHER AND/OR OBSTRUCTIONS TO VISIBILITY.

NOT ALL STATIONS ARE QUALITY CONTROLLED BY THE NATIONAL
WEATHER SERVICE. USE DATA WITH CAUTION...ESPECIALLY
DEWPOINT OBSERVATIONS.

NOTICE: OBSERVATIONS FOR THE SAVANNAH-HILTON HEAD INTERNATIONAL AIRPORT
/KSAV/ HAVE BEEN TEMPORARILY REMOVED DUE TO AN ERRONEOUS TEMPERATURE
SENSOR. THE OBSERVATION WILL BE REINTRODUCED ONCE REPAIRS ARE COMPLETE.

SCZ027-030-031-034>040-042>050-091100-
...SOUTHEAST SOUTH CAROLINA...

CITY           SKY/WX    TMP DP  RH WIND       PRES   REMARKS
N CHARLESTON   CLEAR     38  29  70 W12       29.78R WCI  30
WATERFRONT PRK   N/A     41  32  70 W7        29.62R
MOUNT PLEASANT FAIR      39  32  75 W12       29.78R WCI  32
JOHNS ISLAND   FAIR      41  28  60 W10G18    29.80R
PINOPOLIS        N/A     43  30  61 W15       29.68R
MONCKS CORNER  FAIR      36  23  60 SW6       29.77R WCI  31
SUMMERVILLE    FAIR      37  32  81 SW8       29.79R WCI  31
BEAUFORT MCAS  CLEAR     39  28  64 W12       29.82R WCI  32
BEAUFORT ARPT  FAIR      39  30  70 W14       29.82R WCI  31
HILTON HEAD IS CLEAR     39  32  75 W8        29.84S WCI  34
WALTERBORO     MOSUNNY   37  32  81 W8        29.81R WCI  31
ALLENDALE      FAIR      36  27  69 CALM      29.81R

...SOUTHERN MIDLANDS AND PEE DEE...

CITY           SKY/WX    TMP DP  RH WIND       PRES   REMARKS
GEORGETOWN     NOT AVBL
KINGSTREE      NOT AVBL
ORANGEBURG     CLEAR     38  21  50 W12       29.76R WCI  30
BARNWELL       FAIR      36  27  69 W7        29.80R WCI  30
AIKEN          FAIR      34  21  60 W9        29.80R WCI  26
MANNING        FAIR      37  23  56 SW10G17   29.75R WCI  30
COLUMBIA       CLEAR     37  21  52 W15       29.74R WCI  28
SUMTER         CLEAR     36  24  63 W10       29.70R WCI  28
FLORENCE       PTCLDY    39  26  59 W12G20    29.69R WCI  32
MYRTLE BEACH   MOCLDY    39  27  60 W9        29.72R WCI  33
N MYRTLE BEACH PTCLDY    40  31  70 W9        29.68R WCI  34

$$

GAZ063-065-086>088-099>101-113>116-118-119-134>141-150-091100-
...SOUTHEAST GEORGIA...

CITY           SKY/WX    TMP DP  RH WIND       PRES   REMARKS
SAVANNAH ARPT  CLEAR     37  29  72 W10       29.85R WCI  30
HUNTER AAF     CLEAR     37  30  74 W10       29.83R WCI  30
FORT STEWART   CLEAR     37  29  75 W5        29.84R WCI  33
STATESBORO     PTCLDY    40  24  51 W5        29.84S WCI  37
SYLVANIA       MOSUNNY   38  30  75 W6        29.84R WCI  33
CLAXTON        FAIR      37  31  76 SW5       29.85F WCI  34

...CSRA...CENTRAL AND FAR SOUTHEAST GEORGIA...

CITY           SKY/WX    TMP DP  RH WIND       PRES   REMARKS
THOMSON        CLOUDY    37  30  77 W3        29.82F
AUGUSTA-BUSH   PTCLDY    34  24  67 SW6       29.80S WCI  29
AUGUSTA-DANIEL PTCLDY    36  22  56 W7        29.79S WCI  30
SWAINSBORO     FAIR      34  27  75 W5        29.84F WCI  30
VIDALIA        CLEAR     36  27  69 W5        29.85S WCI  32
EASTMAN        FAIR      37  25  62 W3        29.88F
HAZLEHURST     FAIR      37  31  81 SW5       29.86F WCI  33
ALMA           MOCLDY    37  29  72 W7        29.88S WCI  32
WAYCROSS       PTCLDY    41  32  70 W6        29.90R
JESUP          FAIR      39  32  75 W3        29.88S
BAXLEY         FAIR      37  32  81 W5        29.87F WCI  34
BRUNSWICK      CLEAR     37  32  81 W6        29.89F WCI  33
SAINT SIMONS   CLEAR     40  33  76 W7        29.88S WCI  35

$$

SCZ027-028-034-036>038-045-046-048>050-GAZ119-141-091100-
...LAKE AND SUPPLEMENTAL COASTAL OBSERVATIONS...

STATION/POSITION TIME  TEMP    WIND        PRES    WAVE   SWELL
                       AIR SEA DIR/SP/G            HT/PER HT/PER/DIR
                 (UTC) (F)     (DEG/KT/KT) (MB)    (FT/S) (FT/S/D)
WINYAH BAY       0900   41     260/  9     1005.0R
LAKE MURRAY      0900   39     270/ 17/ 22 1005.8S
ACE BASIN NERRS  0900   39     280/  3     1009.0
FORT PULASKI     0900   43 51  270/ 16/ 19 1010.2R
SAPELO ISLAND    1000   41     270/  9     1011.0S

$$

ANZ835-935-AMZ111-154-330-350-352-354-370-450-454-472-091100-
...C-MAN AND BUOY OBSERVATIONS...

STATION/POSITION TIME  TEMP    WIND        PRES    WAVE   SWELL
                       AIR SEA DIR/SP/G            HT/PER HT/PER/DIR
                 (UTC) (F)     (DEG/KT/KT) (MB)    (FT/S) (FT/S/D)
BUOY 41004       0950   50 65  280/ 25/ 31 1006.8R   9/ 6   2/16
BUOY 41008       0950   46 54  290/ 19/ 23 1011.1R   4/ 5
FOLLY BEACH CMAN 1000   40     260/  7/ 11 1008.7R
CAPERS NEARSHORE 0908   45     290/ 19/ 25 1006.7F
FRIPP NEARSHORE  0900   45     300/ 19/ 23 1008.9R


STATION/POSITION TIME  TEMP    WIND        PRES    WAVE   SWELL
                       AIR SEA DIR/SP/G            HT/PER HT/PER/DIR
                 (UTC) (F)     (DEG/KT/KT) (MB)    (FT/S) (FT/S/D)
5E ST. MARYS GA  0921      56                N/A     3/15   2/ 90/15
FRYING PAN BUOY  1000   51 61  270/ 25/ 33 1004.4R
BUOY 41025       0950   48 73  300/ 17/ 23 1001.2F  12/15  11/ 80/15
CAPE LOOKOUT NC  NOT AVBL
BUOY 41002       0950   57 69  300/ 31/ 41   N/A    14/ 8  10/340/15
BUOY 41010       0920   63 72              1009.3R
ST AUGUSTINE FL  1000   47 57  280/  8/ 11 1014.2R


$$



USA.gov is the U.S. government's official web portal to all federal, state and local government web resources and services.